Location: Radomski Observatory
(40.2854°N, 79.5145°W)
Time: 23:08:33
(UTC-05:00)

Cosmos 1072 Rocket - Visible Passes

Search period start: 24 November 2017 00:00
Search period end: 04 December 2017 00:00
Orbit: 949 x 1008 km, 82.9° (Epoch: 24 November)

Date Brightness Start Highest point End Pass type
(mag) Time Alt. Az. Time Alt. Az. Time Alt. Az.
24 Nov 6.5 04:20:58 10° NNE 04:26:13 26° ENE 04:31:24 10° SE visible
24 Nov 4.7 06:05:46 10° NNW 06:11:55 49° W 06:18:01 10° SSW visible
24 Nov 4.6 17:49:49 10° SSE 17:55:52 56° E 18:02:02 10° NNE visible
24 Nov 6.7 19:37:00 10° WSW 19:41:42 22° WNW 19:46:30 10° NNW visible
25 Nov 5.5 04:46:43 10° N 04:52:53 46° ENE 04:58:57 10° SSE visible
25 Nov 5.4 06:32:46 10° NNW 06:37:59 27° W 06:43:11 10° SW visible
25 Nov 4.6 18:15:55 10° S 18:22:09 81° W 18:28:31 10° N visible
25 Nov 7.3 20:06:34 10° W 20:08:39 12° WNW 20:10:46 10° NW visible
26 Nov 7.3 03:30:19 10° NE 03:32:53 12° ENE 03:35:25 10° E visible
26 Nov 4.6 05:12:53 10° N 05:19:21 83° E 05:25:44 10° S visible
26 Nov 5.6 18:42:43 10° SSW 18:48:37 44° WNW 18:54:40 10° N visible
27 Nov 6.6 03:54:50 10° NNE 03:59:49 23° ENE 04:04:45 10° ESE visible
27 Nov 4.6 05:39:23 10° NNW 05:45:37 55° W 05:51:48 10° SSW visible
27 Nov 4.7 17:23:35 10° SSE 17:29:34 50° E 17:35:39 10° NNE visible
27 Nov 6.6 19:10:19 10° SW 19:15:19 24° WNW 19:20:23 10° NNW visible
28 Nov 5.7 04:20:28 10° N 04:26:31 41° ENE 04:32:29 10° SE visible
28 Nov 5.3 06:06:18 10° NNW 06:11:44 30° W 06:17:07 10° SW visible
28 Nov 4.6 17:49:33 10° S 17:55:49 89° WNW 18:02:13 10° N visible
28 Nov 7.2 19:39:21 10° W 19:42:13 13° WNW 19:45:06 10° NW visible
29 Nov 7.3 03:04:48 10° NE 03:06:26 11° ENE 03:08:05 10° ENE visible
29 Nov 4.6 04:46:35 10° N 04:53:01 75° E 04:59:23 10° SSE visible
29 Nov 5.9 06:34:00 10° NW 06:37:38 16° W 06:41:16 10° WSW visible
29 Nov 5.5 18:16:14 10° SSW 18:22:15 49° WNW 18:28:25 10° N visible
30 Nov 6.7 03:29:25 12° NNE 03:33:25 21° ENE 03:38:04 10° ESE visible
30 Nov 4.5 05:14:21 17° NNW 05:19:21 61° W 05:25:34 10° S visible
30 Nov 6.5 18:43:40 10° SW 18:48:54 27° WNW 18:54:13 10° NNW visible
01 Dec 5.8 03:58:04 30° NE 04:00:09 37° ENE 04:05:59 10° SE visible
01 Dec 5.1 05:42:57 25° NW 05:45:28 33° W 05:51:01 10° SSW visible
01 Dec 4.6 17:23:14 10° S 17:29:29 83° E 17:35:54 10° N visible
01 Dec 7.2 19:12:21 10° W 19:15:46 15° WNW 19:19:14 10° NNW visible
02 Dec 4.7 04:26:17 66° ENE 04:26:42 68° E 04:33:00 10° SSE visible
02 Dec 5.8 06:11:10 18° WNW 06:11:24 18° W 06:15:26 10° WSW visible
02 Dec 5.3 17:49:46 10° SSW 17:55:54 55° W 18:02:10 10° N visible
03 Dec 6.9 03:09:26 15° E 03:09:26 15° E 03:11:20 10° ESE visible
03 Dec 4.7 04:54:16 55° SW 04:54:16 55° SW 04:59:19 10° S visible
03 Dec 6.4 18:17:05 10° SW 18:22:30 30° WNW 18:28:04 10° NNW visible
